Regional Weather Roundup
Issued by NWS

Home | Current Version | Previous Version | Text Only | Print | Product List | Glossary On
Versions: 1 2 3 4 5 6 7 8 9 10 11 12 13 14 15 16 17 18 19 20 21 22 23 24 25 26 27 28 29 30 31 32 33 34 35 36 37 38 39 40 41 42 43 44 45 46 47 48 49 50
000
ASUS46 KSEW 240410
RWRWA

WASHINGTON REGIONAL WEATHER ROUNDUP
NATIONAL WEATHER SERVICE SEATTLE WA
900 PM PDT WED JUL 23 2014

NOTE:"FAIR" INDICATES FEW OR NO CLOUDS BELOW 12,000 FEET WITH NO
SIGNIFICANT WEATHER AND/OR OBSTRUCTIONS TO VISIBILITY.

WAZ505-507>509-240500-
SEATTLE, TACOMA, EVERETT, AND VICINITY

CITY           SKY/WX    TMP DP  RH WIND       PRES   REMARKS
EVERETT        MOCLDY    58  53  84 SE13G20   30.05R
BOEING FIELD   CLOUDY    63  52  67 S9        30.06R
RENTON         MOCLDY    61  56  83 SE7       30.06R
SEATAC AIRPORT LGT RAIN  60  54  80 SW7       30.07R
JBLM-MCCHORD   MOCLDY    57  52  84 S8        30.08R
PUYALLUP       FAIR      57  55  94 CALM      30.09R
JBLM-FT LEWIS  DRIZZLE   59  51  75 S8        30.07R
TACOMA NARROWS PTCLDY    59  51  75 S10       30.06R
$$

WAZ001-503-506-510-514-515-240500-
NORTH INTERIOR

CITY           SKY/WX    TMP DP  RH WIND       PRES   REMARKS
BELLINGHAM     RAIN      58  54  86 SE7       30.03R FOG
FRIDAY HARBOR  CLOUDY    55  53  93 CALM      30.03R
EASTSOUND      CLOUDY    57  55  94 CALM      30.00R
PORT ANGELES   MOCLDY    58  52  80 E6        30.01R
NAS WHIDBEY    MOCLDY    60  55  83 CALM      30.03R
BURLINGTON     MOCLDY    57  55  94 E5        30.03S
$$

WAZ020-022-039-040-504-511-512-240500-
SOUTHWEST INTERIOR

CITY           SKY/WX    TMP DP  RH WIND       PRES   REMARKS
SHELTON        MOCLDY    58  51  78 S7        30.04R
OLYMPIA        MOCLDY    59  51  75 S8        30.07R
CHEHALIS       CLOUDY    61  54  77 S7        30.08R
KELSO          MOCLDY    63  50  63 SE5       30.14R
VANCOUVER      PTCLDY    62  51  67 SW5       30.12R
SCAPPOOSE, OR  PTCLDY    60  51  72 SW6       30.11R
PORTLAND, OR   MOCLDY    63  51  65 SW10      30.13R
$$

WAZ021-516-517-240500-
WASHINGTON COAST

CITY           SKY/WX    TMP DP  RH WIND       PRES   REMARKS
FORKS          PTCLDY    57  51  80 SE6       29.98R
HOQUIAM        LGT RAIN  58  55  90 SE10      30.04S FOG
ASTORIA, OR    CLOUDY    59  55  87 S10       30.06S
$$

WAZ019-023-024-040-518-519-240500-
CASCADE MOUNTAINS AND COLUMBIA GORGE

CITY           SKY/WX    TMP DP  RH WIND       PRES   REMARKS
STAMPEDE PASS  CLOUDY    43  40  89 VRB6      30.09R
TROUTDALE, OR  CLOUDY    63  51  65 SW8       30.12R
THE DALLES, OR CLOUDY    61  51  70 NW12      30.10R
$$

WAZ026-027-041>044-520-521-240500-
EAST SLOPES

CITY           SKY/WX    TMP DP  RH WIND       PRES   REMARKS
OMAK           PTCLDY    66  53  63 SE10      29.87S
WENATCHEE      MOCLDY    63  45  51 NW9       29.97R
ELLENSBURG     CLOUDY    57  45  64 NW17G24   30.04R
YAKIMA         MOCLDY    62  42  47 W13       30.03R
$$

WAZ028-034-035-240500-
COLUMBIA BASIN

CITY           SKY/WX    TMP DP  RH WIND       PRES   REMARKS
EPHRATA        MOCLDY    65  45  48 SW6       29.95R
MOSES LAKE     MOCLDY    66  46  48 SW15      29.98R
PASCO          CLOUDY    65  50  58 SW15      30.01F
HERMISTON, OR  PTCLDY    62  51  67 SW13      30.05R
$$

WAZ036>038-240500-
NORTHEAST WASHINGTON

CITY           SKY/WX    TMP DP  RH WIND       PRES   REMARKS
SPOKANE GEIGER MOCLDY    61  51  70 S13       30.02R
SPOKANE FELTS  MOCLDY    65  50  58 SW13      30.02R
FAIRCHILD AFB  MOCLDY    59  52  77 S9        30.02R
COEURDALENE,ID MOCLDY    61  52  72 CALM      30.00S
DEER PARK      NOT AVBL
$$

WAZ029>033-240500-
SOUTHEAST WASHINGTON

CITY           SKY/WX    TMP DP  RH WIND       PRES   REMARKS
PULLMAN        PTCLDY    59  50  72 VRB6      30.09R
LEWISTON, ID   PTCLDY    67  49  52 NW20G29   30.00R
WALLA WALLA    LGT RAIN  64  50  60 SW16G22   30.08R
PENDLETON, OR  LGT RAIN  60  51  72 S9        30.08R
$$


USA.gov is the U.S. government's official web portal to all federal, state and local government web resources and services.